Year,Month,Day,Hour,Minute,Value (Times are PST for insolation in W/m^2)
2010,05,31,00,00,0.00
2010,05,31,00,01,0.00
2010,05,31,00,02,0.00
2010,05,31,00,03,0.00
2010,05,31,00,04,0.00
2010,05,31,00,05,0.00
2010,05,31,00,06,0.00
2010,05,31,00,07,0.00
2010,05,31,00,08,0.00
2010,05,31,00,09,0.00
2010,05,31,00,10,0.00
2010,05,31,00,11,0.00
2010,05,31,00,12,0.00
2010,05,31,00,13,0.00
2010,05,31,00,14,0.00
2010,05,31,00,15,0.00
2010,05,31,00,16,0.00
2010,05,31,00,17,0.00
2010,05,31,00,18,0.00
2010,05,31,00,19,0.00
2010,05,31,00,20,0.00
2010,05,31,00,21,0.00
2010,05,31,00,22,0.00
2010,05,31,00,23,0.00
2010,05,31,00,24,0.00
2010,05,31,00,25,0.00
2010,05,31,00,26,0.00
2010,05,31,00,27,0.00
2010,05,31,00,28,0.00
2010,05,31,00,29,0.00
2010,05,31,00,30,0.00
2010,05,31,00,31,0.00
2010,05,31,00,32,0.00
2010,05,31,00,33,0.00
2010,05,31,00,34,0.00
2010,05,31,00,35,0.00
2010,05,31,00,36,0.00
2010,05,31,00,37,0.00
2010,05,31,00,38,0.00
2010,05,31,00,39,0.00
2010,05,31,00,40,0.00
2010,05,31,00,41,0.00
2010,05,31,00,42,0.00
2010,05,31,00,43,0.00
2010,05,31,00,44,0.00
2010,05,31,00,45,0.00
2010,05,31,00,46,0.00
2010,05,31,00,47,0.00
2010,05,31,00,48,0.00
2010,05,31,00,49,0.00
2010,05,31,00,50,0.00
2010,05,31,00,51,0.00
2010,05,31,00,52,0.00
2010,05,31,00,53,0.00
2010,05,31,00,54,0.00
2010,05,31,00,55,0.00
2010,05,31,00,56,0.00
2010,05,31,00,57,0.00
2010,05,31,00,58,0.00
2010,05,31,00,59,0.00
2010,05,31,01,00,0.00
2010,05,31,01,01,0.00
2010,05,31,01,02,0.00
2010,05,31,01,03,0.00
2010,05,31,01,04,0.00
2010,05,31,01,05,0.00
2010,05,31,01,06,0.00
2010,05,31,01,07,0.00
2010,05,31,01,08,0.00
2010,05,31,01,09,0.00
2010,05,31,01,10,0.00
2010,05,31,01,11,0.00
2010,05,31,01,12,0.00
2010,05,31,01,13,0.00
2010,05,31,01,14,0.00
2010,05,31,01,15,0.00
2010,05,31,01,16,0.00
2010,05,31,01,17,0.00
2010,05,31,01,18,0.00
2010,05,31,01,19,0.00
2010,05,31,01,20,0.00
2010,05,31,01,21,0.00
2010,05,31,01,22,0.00
2010,05,31,01,23,0.00
2010,05,31,01,24,0.00
2010,05,31,01,25,0.00
2010,05,31,01,26,0.00
2010,05,31,01,27,0.00
2010,05,31,01,28,0.00
2010,05,31,01,29,0.00
2010,05,31,01,30,0.00
2010,05,31,01,31,0.00
2010,05,31,01,32,0.00
2010,05,31,01,33,0.00
2010,05,31,01,34,0.00
2010,05,31,01,35,0.00
2010,05,31,01,36,0.00
2010,05,31,01,37,0.00
2010,05,31,01,38,0.00
2010,05,31,01,39,0.00
2010,05,31,01,40,0.00
2010,05,31,01,41,0.00
2010,05,31,01,42,0.00
2010,05,31,01,43,0.00
2010,05,31,01,44,0.00
2010,05,31,01,45,0.00
2010,05,31,01,46,0.00
2010,05,31,01,47,0.00
2010,05,31,01,48,0.00
2010,05,31,01,49,0.00
2010,05,31,01,50,0.00
2010,05,31,01,51,0.00
2010,05,31,01,52,0.00
2010,05,31,01,53,0.00
2010,05,31,01,54,0.00
2010,05,31,01,55,0.00
2010,05,31,01,56,0.00
2010,05,31,01,57,0.00
2010,05,31,01,58,0.00
2010,05,31,01,59,0.00
2010,05,31,02,00,0.00
2010,05,31,02,01,0.00
2010,05,31,02,02,0.00
2010,05,31,02,03,0.00
2010,05,31,02,04,0.00
2010,05,31,02,05,0.00
2010,05,31,02,06,0.00
2010,05,31,02,07,0.00
2010,05,31,02,08,0.00
2010,05,31,02,09,0.00
2010,05,31,02,10,0.00
2010,05,31,02,11,0.00
2010,05,31,02,12,0.00
2010,05,31,02,13,0.00
2010,05,31,02,14,0.00
2010,05,31,02,15,0.00
2010,05,31,02,16,0.00
2010,05,31,02,17,0.00
2010,05,31,02,18,0.00
2010,05,31,02,19,0.00
2010,05,31,02,20,0.00
2010,05,31,02,21,0.00
2010,05,31,02,22,0.00
2010,05,31,02,23,0.00
2010,05,31,02,24,0.00
2010,05,31,02,25,0.00
2010,05,31,02,26,0.00
2010,05,31,02,27,0.00
2010,05,31,02,28,0.00
2010,05,31,02,29,0.00
2010,05,31,02,30,0.00
2010,05,31,02,31,0.00
2010,05,31,02,32,0.00
2010,05,31,02,33,0.00
2010,05,31,02,34,0.00
2010,05,31,02,35,0.00
2010,05,31,02,36,0.00
2010,05,31,02,37,0.00
2010,05,31,02,38,0.00
2010,05,31,02,39,0.00
2010,05,31,02,40,0.00
2010,05,31,02,41,0.00
2010,05,31,02,42,0.00
2010,05,31,02,43,0.00
2010,05,31,02,44,0.00
2010,05,31,02,45,0.00
2010,05,31,02,46,0.00
2010,05,31,02,47,0.00
2010,05,31,02,48,0.00
2010,05,31,02,49,0.00
2010,05,31,02,50,0.00
2010,05,31,02,51,0.00
2010,05,31,02,52,0.00
2010,05,31,02,53,0.00
2010,05,31,02,54,0.00
2010,05,31,02,55,0.00
2010,05,31,02,56,0.00
2010,05,31,02,57,0.00
2010,05,31,02,58,0.00
2010,05,31,02,59,0.00
2010,05,31,03,00,0.00
2010,05,31,03,01,0.00
2010,05,31,03,02,0.00
2010,05,31,03,03,0.00
2010,05,31,03,06,0.00
2010,05,31,03,07,0.00
2010,05,31,03,08,0.00
2010,05,31,03,09,0.00
2010,05,31,03,10,0.00
2010,05,31,03,11,0.00
2010,05,31,03,12,0.00
2010,05,31,03,13,0.00
2010,05,31,03,14,0.00
2010,05,31,03,15,0.00
2010,05,31,03,16,0.00
2010,05,31,03,17,0.00
2010,05,31,03,18,0.00
2010,05,31,03,19,0.00
2010,05,31,03,20,0.00
2010,05,31,03,21,0.00
2010,05,31,03,22,0.00
2010,05,31,03,23,0.00
2010,05,31,03,24,0.00
2010,05,31,03,25,0.00
2010,05,31,03,26,0.00
2010,05,31,03,27,0.00
2010,05,31,03,28,0.00
2010,05,31,03,29,0.00
2010,05,31,03,30,0.00
2010,05,31,03,31,0.00
2010,05,31,03,32,0.00
2010,05,31,03,33,0.00
2010,05,31,03,34,0.00
2010,05,31,03,35,0.00
2010,05,31,03,36,0.00
2010,05,31,03,37,0.00
2010,05,31,03,38,0.00
2010,05,31,03,39,0.00
2010,05,31,03,40,0.00
2010,05,31,03,41,0.00
2010,05,31,03,42,0.00
2010,05,31,03,43,0.00
2010,05,31,03,44,0.00
2010,05,31,03,45,0.00
2010,05,31,03,46,0.00
2010,05,31,03,47,0.00
2010,05,31,03,48,0.00
2010,05,31,03,49,0.00
2010,05,31,03,50,0.00
2010,05,31,03,51,0.00
2010,05,31,03,52,0.00
2010,05,31,03,53,0.00
2010,05,31,03,54,0.00
2010,05,31,03,55,0.00
2010,05,31,03,56,0.00
2010,05,31,03,57,0.00
2010,05,31,03,58,0.00
2010,05,31,03,59,0.00
2010,05,31,04,00,0.00
2010,05,31,04,01,0.00
2010,05,31,04,02,0.00
2010,05,31,04,03,0.00
2010,05,31,04,04,0.00
2010,05,31,04,05,0.00
2010,05,31,04,06,0.00
2010,05,31,04,07,0.00
2010,05,31,04,08,0.00
2010,05,31,04,09,0.00
2010,05,31,04,10,0.00
2010,05,31,04,11,0.00
2010,05,31,04,12,0.00
2010,05,31,04,13,0.00
2010,05,31,04,14,0.00
2010,05,31,04,15,0.00
2010,05,31,04,16,0.00
2010,05,31,04,17,0.00
2010,05,31,04,18,0.00
2010,05,31,04,19,0.00
2010,05,31,04,20,0.00
2010,05,31,04,21,0.00
2010,05,31,04,22,0.00
2010,05,31,04,23,0.00
2010,05,31,04,24,0.00
2010,05,31,04,25,0.00
2010,05,31,04,26,0.00
2010,05,31,04,27,0.00
2010,05,31,04,28,0.00
2010,05,31,04,29,0.00
2010,05,31,04,30,0.00
2010,05,31,04,31,0.00
2010,05,31,04,32,0.00
2010,05,31,04,33,0.00
2010,05,31,04,34,0.00
2010,05,31,04,35,0.00
2010,05,31,04,36,0.00
2010,05,31,04,37,0.00
2010,05,31,04,38,0.00
2010,05,31,04,39,0.00
2010,05,31,04,40,0.00
2010,05,31,04,41,0.00
2010,05,31,04,42,0.00
2010,05,31,04,43,0.00
2010,05,31,04,44,0.00
2010,05,31,04,45,0.00
2010,05,31,04,46,0.00
2010,05,31,04,47,0.00
2010,05,31,04,48,0.00
2010,05,31,04,49,0.00
2010,05,31,04,50,0.00
2010,05,31,04,51,0.00
2010,05,31,04,52,0.00
2010,05,31,04,53,0.00
2010,05,31,04,54,0.00
2010,05,31,04,55,0.00
2010,05,31,04,56,0.00
2010,05,31,04,57,0.00
2010,05,31,04,58,0.00
2010,05,31,04,59,0.00
2010,05,31,05,00,0.00
2010,05,31,05,01,0.00
2010,05,31,05,02,0.00
2010,05,31,05,03,0.00
2010,05,31,05,04,0.00
2010,05,31,05,05,0.00
2010,05,31,05,06,0.00
2010,05,31,05,07,0.00
2010,05,31,05,08,0.00
2010,05,31,05,09,0.00
2010,05,31,05,10,0.00
2010,05,31,05,11,0.00
2010,05,31,05,12,0.00
2010,05,31,05,13,0.00
2010,05,31,05,14,0.00
2010,05,31,05,15,0.00
2010,05,31,05,16,0.00
2010,05,31,05,17,0.00
2010,05,31,05,18,0.00
2010,05,31,05,19,0.00
2010,05,31,05,20,0.00
2010,05,31,05,21,0.00
2010,05,31,05,22,0.00
2010,05,31,05,23,0.00
2010,05,31,05,24,0.00
2010,05,31,05,25,0.00
2010,05,31,05,26,0.00
2010,05,31,05,27,0.00
2010,05,31,05,28,0.00
2010,05,31,05,29,0.00
2010,05,31,05,30,0.00
2010,05,31,05,31,0.00
2010,05,31,05,32,0.00
2010,05,31,05,33,0.00
2010,05,31,05,34,0.00
2010,05,31,05,35,0.00
2010,05,31,05,36,0.00
2010,05,31,05,37,0.00
2010,05,31,05,38,0.00
2010,05,31,05,39,0.00
2010,05,31,05,40,0.00
2010,05,31,05,41,0.00
2010,05,31,05,42,0.00
2010,05,31,05,43,0.00
2010,05,31,05,44,0.00
2010,05,31,05,45,0.00
2010,05,31,05,46,2.80
2010,05,31,05,47,5.00
2010,05,31,05,48,5.00
2010,05,31,05,49,5.00
2010,05,31,05,50,5.00
2010,05,31,05,51,5.00
2010,05,31,05,52,5.00
2010,05,31,05,53,5.00
2010,05,31,05,54,6.00
2010,05,31,05,55,7.00
2010,05,31,05,56,7.00
2010,05,31,05,57,7.00
2010,05,31,05,58,7.00
2010,05,31,05,59,7.00
2010,05,31,06,00,7.00
2010,05,31,06,01,7.70
2010,05,31,06,02,9.00
2010,05,31,06,03,9.00
2010,05,31,06,04,10.20
2010,05,31,06,05,11.00
2010,05,31,06,06,11.00
2010,05,31,06,07,11.10
2010,05,31,06,08,12.00
2010,05,31,06,09,12.00
2010,05,31,06,10,12.00
2010,05,31,06,11,12.00
2010,05,31,06,12,12.00
2010,05,31,06,13,12.00
2010,05,31,06,14,12.00
2010,05,31,06,15,12.00
2010,05,31,06,16,12.00
2010,05,31,06,17,12.00
2010,05,31,06,18,12.00
2010,05,31,06,19,12.80
2010,05,31,06,20,14.00
2010,05,31,06,21,14.00
2010,05,31,06,22,14.00
2010,05,31,06,23,15.70
2010,05,31,06,24,16.00
2010,05,31,06,25,18.00
2010,05,31,06,26,18.80
2010,05,31,06,27,21.70
2010,05,31,06,28,23.00
2010,05,31,06,29,23.00
2010,05,31,06,30,23.00
2010,05,31,06,31,23.00
2010,05,31,06,32,24.80
2010,05,31,06,33,26.10
2010,05,31,06,34,28.40
2010,05,31,06,35,30.60
2010,05,31,06,36,32.00
2010,05,31,06,37,32.50
2010,05,31,06,38,33.00
2010,05,31,06,39,33.00
2010,05,31,06,40,33.00
2010,05,31,06,41,33.00
2010,05,31,06,42,32.00
2010,05,31,06,43,32.00
2010,05,31,06,44,32.00
2010,05,31,06,45,32.00
2010,05,31,06,46,32.00
2010,05,31,06,47,32.00
2010,05,31,06,48,32.00
2010,05,31,06,49,32.90
2010,05,31,06,50,33.10
2010,05,31,06,51,35.30
2010,05,31,06,52,37.00
2010,05,31,06,53,37.00
2010,05,31,06,54,37.00
2010,05,31,06,55,38.30
2010,05,31,06,56,39.00
2010,05,31,06,57,39.80
2010,05,31,06,58,41.90
2010,05,31,06,59,42.00
2010,05,31,07,00,42.00
2010,05,31,07,01,42.00
2010,05,31,07,02,42.80
2010,05,31,07,03,45.10
2010,05,31,07,04,46.60
2010,05,31,07,05,48.50
2010,05,31,07,06,50.70
2010,05,31,07,07,51.00
2010,05,31,07,08,49.00
2010,05,31,07,09,49.00
2010,05,31,07,10,49.00
2010,05,31,07,11,49.00
2010,05,31,07,12,50.20
2010,05,31,07,13,53.10
2010,05,31,07,14,55.60
2010,05,31,07,15,57.80
2010,05,31,07,16,59.90
2010,05,31,07,17,57.60
2010,05,31,07,18,55.50
2010,05,31,07,19,53.60
2010,05,31,07,20,52.00
2010,05,31,07,21,51.00
2010,05,31,07,22,51.00
2010,05,31,07,23,49.30
2010,05,31,07,24,49.00
2010,05,31,07,25,49.00
2010,05,31,07,26,49.00
2010,05,31,07,27,48.30
2010,05,31,07,28,47.90
2010,05,31,07,29,49.00
2010,05,31,07,30,49.00
2010,05,31,07,31,50.60
2010,05,31,07,32,52.80
2010,05,31,07,33,54.00
2010,05,31,07,34,54.00
2010,05,31,07,35,53.70
2010,05,31,07,36,53.00
2010,05,31,07,37,53.50
2010,05,31,07,38,54.00
2010,05,31,07,39,55.40
2010,05,31,07,40,59.40
2010,05,31,07,41,62.80
2010,05,31,07,42,67.20
2010,05,31,07,43,69.00
2010,05,31,07,44,69.00
2010,05,31,07,45,68.20
2010,05,31,07,46,67.00
2010,05,31,07,47,64.50
2010,05,31,07,48,64.50
2010,05,31,07,49,66.70
2010,05,31,07,50,69.00
2010,05,31,07,51,70.30
2010,05,31,07,52,72.00
2010,05,31,07,53,72.00
2010,05,31,07,54,72.00
2010,05,31,07,55,72.00
2010,05,31,07,56,72.00
2010,05,31,07,57,72.00
2010,05,31,07,58,72.00
2010,05,31,07,59,72.00
2010,05,31,08,00,72.00
2010,05,31,08,01,71.40
2010,05,31,08,02,70.00
2010,05,31,08,03,69.50
2010,05,31,08,04,69.00
2010,05,31,08,05,67.50
2010,05,31,08,06,67.00
2010,05,31,08,07,65.10
2010,05,31,08,08,65.30
2010,05,31,08,09,67.00
2010,05,31,08,10,67.00
2010,05,31,08,11,67.90
2010,05,31,08,12,69.50
2010,05,31,08,13,71.30
2010,05,31,08,14,73.60
2010,05,31,08,15,75.80
2010,05,31,08,16,74.00
2010,05,31,08,17,74.00
2010,05,31,08,18,74.50
2010,05,31,08,19,76.00
2010,05,31,08,20,76.50
2010,05,31,08,21,76.40
2010,05,31,08,22,76.00
2010,05,31,08,23,81.50
2010,05,31,08,24,85.80
2010,05,31,08,25,90.30
2010,05,31,08,26,93.40
2010,05,31,08,27,95.60
2010,05,31,08,28,97.40
2010,05,31,08,29,99.10
2010,05,31,08,30,102.50
2010,05,31,08,31,104.70
2010,05,31,08,32,105.00
2010,05,31,08,33,108.80
2010,05,31,08,34,113.50
2010,05,31,08,35,117.10
2010,05,31,08,36,120.00
2010,05,31,08,37,120.00
2010,05,31,08,38,120.00
2010,05,31,08,39,122.10
2010,05,31,08,40,128.50
2010,05,31,08,41,134.50
2010,05,31,08,42,136.90
2010,05,31,08,43,133.60
2010,05,31,08,44,131.40
2010,05,31,08,45,130.00
2010,05,31,08,46,130.00
2010,05,31,08,47,128.70
2010,05,31,08,48,127.30
2010,05,31,08,49,123.60
2010,05,31,08,50,118.30
2010,05,31,08,51,112.20
2010,05,31,08,52,103.20
2010,05,31,08,53,98.00
2010,05,31,08,54,94.60
2010,05,31,08,55,91.70
2010,05,31,08,56,94.40
2010,05,31,08,57,97.40
2010,05,31,08,58,99.80
2010,05,31,08,59,102.00
2010,05,31,09,00,101.70
2010,05,31,09,01,100.00
2010,05,31,09,02,100.70
2010,05,31,09,03,103.10
2010,05,31,09,04,108.10
2010,05,31,09,05,114.40
2010,05,31,09,06,117.70
2010,05,31,09,07,119.90
2010,05,31,09,08,120.10
2010,05,31,09,09,121.00
2010,05,31,09,10,121.00
2010,05,31,09,11,121.80
2010,05,31,09,12,125.10
2010,05,31,09,13,131.40
2010,05,31,09,14,139.20
2010,05,31,09,15,143.50
2010,05,31,09,16,148.70
2010,05,31,09,17,149.00
2010,05,31,09,18,151.40
2010,05,31,09,19,157.30
2010,05,31,09,20,156.00
2010,05,31,09,21,159.50
2010,05,31,09,22,166.80
2010,05,31,09,23,178.50
2010,05,31,09,24,191.70
2010,05,31,09,25,207.70
2010,05,31,09,26,220.80
2010,05,31,09,27,227.80
2010,05,31,09,28,236.10
2010,05,31,09,29,230.60
2010,05,31,09,30,209.70
2010,05,31,09,31,194.60
2010,05,31,09,32,182.70
2010,05,31,09,33,172.50
2010,05,31,09,34,166.60
2010,05,31,09,35,162.80
2010,05,31,09,36,161.40
2010,05,31,09,37,158.10
2010,05,31,09,38,154.40
2010,05,31,09,39,151.60
2010,05,31,09,40,148.60
2010,05,31,09,41,148.00
2010,05,31,09,42,148.10
2010,05,31,09,43,149.30
2010,05,31,09,44,150.50
2010,05,31,09,45,148.60
2010,05,31,09,46,147.10
2010,05,31,09,47,146.00
2010,05,31,09,48,149.40
2010,05,31,09,49,160.50
2010,05,31,09,50,176.40
2010,05,31,09,51,186.20
2010,05,31,09,52,188.00
2010,05,31,09,53,184.20
2010,05,31,09,54,173.90
2010,05,31,09,55,167.80
2010,05,31,09,56,160.60
2010,05,31,09,57,152.80
2010,05,31,09,58,149.30
2010,05,31,09,59,149.00
2010,05,31,10,00,155.80
2010,05,31,10,01,160.00
2010,05,31,10,02,158.70
2010,05,31,10,03,152.70
2010,05,31,10,04,149.00
2010,05,31,10,05,149.00
2010,05,31,10,06,153.20
2010,05,31,10,07,155.90
2010,05,31,10,08,150.50
2010,05,31,10,09,139.60
2010,05,31,10,10,131.50
2010,05,31,10,11,130.80
2010,05,31,10,12,133.60
2010,05,31,10,13,135.00
2010,05,31,10,14,139.40
2010,05,31,10,15,151.10
2010,05,31,10,16,174.80
2010,05,31,10,17,192.00
2010,05,31,10,18,191.60
2010,05,31,10,19,191.50
2010,05,31,10,20,195.00
2010,05,31,10,21,189.70
2010,05,31,10,22,185.60
2010,05,31,10,23,187.50
2010,05,31,10,24,191.60
2010,05,31,10,25,192.90
2010,05,31,10,26,194.70
2010,05,31,10,27,216.40
2010,05,31,10,28,230.00
2010,05,31,10,29,219.40
2010,05,31,10,30,235.50
2010,05,31,10,31,259.00
2010,05,31,10,32,270.50
2010,05,31,10,33,267.30
2010,05,31,10,34,253.50
2010,05,31,10,35,267.50
2010,05,31,10,36,294.30
2010,05,31,10,37,302.50
2010,05,31,10,38,291.30
2010,05,31,10,39,268.40
2010,05,31,10,40,236.00
2010,05,31,10,41,228.70
2010,05,31,10,42,236.60
2010,05,31,10,43,222.30
2010,05,31,10,44,193.70
2010,05,31,10,45,171.40
2010,05,31,10,46,163.70
2010,05,31,10,47,165.20
2010,05,31,10,48,186.80
2010,05,31,10,49,195.00
2010,05,31,10,50,259.40
2010,05,31,10,51,300.90
2010,05,31,10,52,302.80
2010,05,31,10,53,324.90
2010,05,31,10,54,317.90
2010,05,31,10,55,268.20
2010,05,31,10,56,220.70
2010,05,31,10,57,208.60
2010,05,31,10,58,222.20
2010,05,31,10,59,233.50
2010,05,31,11,00,216.60
2010,05,31,11,01,215.90
2010,05,31,11,02,227.00
2010,05,31,11,03,241.70
2010,05,31,11,04,252.70
2010,05,31,11,05,254.30
2010,05,31,11,06,260.90
2010,05,31,11,07,291.50
2010,05,31,11,08,333.20
2010,05,31,11,09,356.90
2010,05,31,11,10,357.30
2010,05,31,11,11,316.70
2010,05,31,11,12,293.10
2010,05,31,11,13,289.10
2010,05,31,11,14,269.90
2010,05,31,11,15,262.00
2010,05,31,11,16,305.80
2010,05,31,11,17,348.00
2010,05,31,11,18,386.50
2010,05,31,11,19,535.40
2010,05,31,11,20,545.00
2010,05,31,11,21,545.00
2010,05,31,11,22,618.30
2010,05,31,11,23,667.60
2010,05,31,11,24,641.40
2010,05,31,11,25,635.10
2010,05,31,11,26,602.90
2010,05,31,11,27,415.40
2010,05,31,11,28,356.70
2010,05,31,11,29,323.40
2010,05,31,11,30,329.20
2010,05,31,11,31,370.40
2010,05,31,11,32,419.40
2010,05,31,11,33,483.90
2010,05,31,11,34,497.50
2010,05,31,11,35,633.00
2010,05,31,11,36,601.40
2010,05,31,11,37,509.70
2010,05,31,11,38,504.00
2010,05,31,11,39,436.80
2010,05,31,11,40,388.00
2010,05,31,11,41,564.80
2010,05,31,11,42,598.00
2010,05,31,11,43,598.00
2010,05,31,11,44,590.20
2010,05,31,11,45,542.70
2010,05,31,11,46,491.30
2010,05,31,11,47,468.40
2010,05,31,11,48,469.40
2010,05,31,11,49,501.20
2010,05,31,11,50,506.90
2010,05,31,11,51,481.90
2010,05,31,11,52,458.20
2010,05,31,11,53,432.50
2010,05,31,11,54,411.80
2010,05,31,11,55,392.10
2010,05,31,11,56,372.50
2010,05,31,11,57,369.70
2010,05,31,11,58,383.60
2010,05,31,11,59,416.50
2010,05,31,12,00,465.40
2010,05,31,12,01,520.00
2010,05,31,12,02,557.30
2010,05,31,12,03,638.00
2010,05,31,12,04,532.20
2010,05,31,12,05,380.30
2010,05,31,12,06,407.50
2010,05,31,12,07,398.40
2010,05,31,12,08,378.90
2010,05,31,12,09,346.40
2010,05,31,12,10,352.90
2010,05,31,12,11,371.60
2010,05,31,12,12,407.40
2010,05,31,12,13,453.30
2010,05,31,12,14,513.40
2010,05,31,12,15,596.40
2010,05,31,12,16,645.40
2010,05,31,12,17,652.40
2010,05,31,12,18,616.80
2010,05,31,12,19,551.20
2010,05,31,12,20,479.70
2010,05,31,12,21,417.50
2010,05,31,12,22,387.00
2010,05,31,12,23,399.20
2010,05,31,12,24,415.60
2010,05,31,12,25,417.90
2010,05,31,12,26,423.40
2010,05,31,12,27,457.20
2010,05,31,12,28,496.80
2010,05,31,12,29,537.10
2010,05,31,12,30,548.00
2010,05,31,12,31,548.00
2010,05,31,12,32,1203.80
2010,05,31,12,33,1443.70
2010,05,31,12,34,1466.00
2010,05,31,12,35,1458.30
2010,05,31,12,36,1417.00
2010,05,31,12,37,1417.00
2010,05,31,12,38,1023.00
2010,05,31,12,39,463.40
2010,05,31,12,40,489.00
2010,05,31,12,41,489.00
2010,05,31,12,42,474.70
2010,05,31,12,43,484.70
2010,05,31,12,44,696.00
2010,05,31,12,45,612.60
2010,05,31,12,46,432.00
2010,05,31,12,47,434.10
2010,05,31,12,48,436.00
2010,05,31,12,49,436.00
2010,05,31,12,50,595.80
2010,05,31,12,51,649.00
2010,05,31,12,52,369.70
2010,05,31,12,53,346.90
2010,05,31,12,54,385.00
2010,05,31,12,55,385.00
2010,05,31,12,56,369.90
2010,05,31,12,57,316.60
2010,05,31,12,58,255.20
2010,05,31,12,59,210.00
2010,05,31,13,00,179.00
2010,05,31,13,01,183.70
2010,05,31,13,02,232.00
2010,05,31,13,03,201.40
2010,05,31,13,04,211.60
2010,05,31,13,05,218.10
2010,05,31,13,06,248.30
2010,05,31,13,07,318.40
2010,05,31,13,08,422.20
2010,05,31,13,09,418.50
2010,05,31,13,10,341.60
2010,05,31,13,11,332.30
2010,05,31,13,12,382.10
2010,05,31,13,13,453.20
2010,05,31,13,14,533.10
2010,05,31,13,15,516.00
2010,05,31,13,16,491.50
2010,05,31,13,17,492.00
2010,05,31,13,18,479.20
2010,05,31,13,19,401.30
2010,05,31,13,20,366.30
2010,05,31,13,21,341.80
2010,05,31,13,22,318.00
2010,05,31,13,23,292.10
2010,05,31,13,24,255.40
2010,05,31,13,25,217.60
2010,05,31,13,26,193.70
2010,05,31,13,27,181.20
2010,05,31,13,28,170.60
2010,05,31,13,29,166.20
2010,05,31,13,30,163.60
2010,05,31,13,31,158.00
2010,05,31,13,32,152.10
2010,05,31,13,33,148.50
2010,05,31,13,34,148.00
2010,05,31,13,35,162.60
2010,05,31,13,36,190.20
2010,05,31,13,37,226.30
2010,05,31,13,38,285.00
2010,05,31,13,39,366.50
2010,05,31,13,40,413.00
2010,05,31,13,41,413.00
2010,05,31,13,42,413.00
2010,05,31,13,43,970.00
2010,05,31,13,44,970.00
2010,05,31,13,45,970.00
2010,05,31,13,46,1009.30
2010,05,31,13,47,1094.60
2010,05,31,13,48,1118.20
2010,05,31,13,49,1130.00
2010,05,31,13,50,1014.60
2010,05,31,13,51,993.00
2010,05,31,13,52,926.10
2010,05,31,13,53,355.90
2010,05,31,13,54,351.40
2010,05,31,13,55,350.80
2010,05,31,13,56,357.30
2010,05,31,13,57,362.00
2010,05,31,13,58,362.00
2010,05,31,13,59,985.30
2010,05,31,14,00,1132.00
2010,05,31,14,01,451.40
2010,05,31,14,02,448.00
2010,05,31,14,03,391.30
2010,05,31,14,04,370.80
2010,05,31,14,05,360.40
2010,05,31,14,06,359.60
2010,05,31,14,07,388.40
2010,05,31,14,08,425.30
2010,05,31,14,09,416.30
2010,05,31,14,10,438.40
2010,05,31,14,11,474.10
2010,05,31,14,12,472.10
2010,05,31,14,13,513.00
2010,05,31,14,14,513.00
2010,05,31,14,15,513.00
2010,05,31,14,16,513.00
2010,05,31,14,17,419.60
2010,05,31,14,18,357.80
2010,05,31,14,19,335.80
2010,05,31,14,20,326.40
2010,05,31,14,21,325.00
2010,05,31,14,22,330.50
2010,05,31,14,23,366.60
2010,05,31,14,24,455.40
2010,05,31,14,25,475.00
2010,05,31,14,26,475.00
2010,05,31,14,27,475.00
2010,05,31,14,28,475.00
2010,05,31,14,29,475.00
2010,05,31,14,30,418.20
2010,05,31,14,31,328.00
2010,05,31,14,32,280.00
2010,05,31,14,33,252.00
2010,05,31,14,34,234.40
2010,05,31,14,35,218.20
2010,05,31,14,36,212.20
2010,05,31,14,37,208.10
2010,05,31,14,38,204.60
2010,05,31,14,39,200.60
2010,05,31,14,40,186.80
2010,05,31,14,41,165.40
2010,05,31,14,42,144.00
2010,05,31,14,43,137.20
2010,05,31,14,44,144.00
2010,05,31,14,45,169.90
2010,05,31,14,46,209.70
2010,05,31,14,47,265.80
2010,05,31,14,48,351.10
2010,05,31,14,49,444.80
2010,05,31,14,50,471.00
2010,05,31,14,51,496.50
2010,05,31,14,52,434.10
2010,05,31,14,53,402.50
2010,05,31,14,54,385.20
2010,05,31,14,55,413.70
2010,05,31,14,56,431.00
2010,05,31,14,57,379.40
2010,05,31,14,58,334.00
2010,05,31,14,59,293.60
2010,05,31,15,00,276.00
2010,05,31,15,01,298.50
2010,05,31,15,02,366.00
2010,05,31,15,03,419.10
2010,05,31,15,04,534.00
2010,05,31,15,05,530.50
2010,05,31,15,06,527.00
2010,05,31,15,07,586.10
2010,05,31,15,08,603.00
2010,05,31,15,09,474.30
2010,05,31,15,10,437.70
2010,05,31,15,11,427.60
2010,05,31,15,12,404.00
2010,05,31,15,13,361.30
2010,05,31,15,14,340.00
2010,05,31,15,15,334.70
2010,05,31,15,16,342.20
2010,05,31,15,17,361.10
2010,05,31,15,18,401.00
2010,05,31,15,19,401.00
2010,05,31,15,20,409.20
2010,05,31,15,21,411.40
2010,05,31,15,22,386.50
2010,05,31,15,23,394.40
2010,05,31,15,24,434.20
2010,05,31,15,25,392.90
2010,05,31,15,26,428.30
2010,05,31,15,27,411.30
2010,05,31,15,28,401.30
2010,05,31,15,29,429.20
2010,05,31,15,30,478.30
2010,05,31,15,31,520.00
2010,05,31,15,32,520.00
2010,05,31,15,33,467.10
2010,05,31,15,34,422.20
2010,05,31,15,35,398.80
2010,05,31,15,36,397.00
2010,05,31,15,37,407.30
2010,05,31,15,38,418.00
2010,05,31,15,39,418.00
2010,05,31,15,40,418.00
2010,05,31,15,41,418.00
2010,05,31,15,42,418.00
2010,05,31,15,43,418.00
2010,05,31,15,44,418.00
2010,05,31,15,45,418.00
2010,05,31,15,46,660.70
2010,05,31,15,47,1227.00
2010,05,31,15,48,1227.00
2010,05,31,15,49,993.00
2010,05,31,15,50,849.00
2010,05,31,15,51,520.20
2010,05,31,15,52,413.70
2010,05,31,15,53,418.00
2010,05,31,15,54,418.00
2010,05,31,15,55,438.00
2010,05,31,15,56,446.30
2010,05,31,15,57,409.30
2010,05,31,15,58,408.00
2010,05,31,15,59,396.80
2010,05,31,16,00,388.60
2010,05,31,16,01,386.20
2010,05,31,16,02,347.50
2010,05,31,16,03,325.40
2010,05,31,16,04,327.40
2010,05,31,16,05,340.30
2010,05,31,16,06,361.40
2010,05,31,16,07,401.90
2010,05,31,16,08,413.00
2010,05,31,16,09,413.00
2010,05,31,16,10,441.30
2010,05,31,16,11,696.00
2010,05,31,16,12,696.00
2010,05,31,16,13,561.00
2010,05,31,16,14,377.50
2010,05,31,16,15,344.50
2010,05,31,16,16,327.80
2010,05,31,16,17,326.70
2010,05,31,16,18,332.00
2010,05,31,16,19,336.50
2010,05,31,16,20,337.10
2010,05,31,16,21,332.70
2010,05,31,16,22,372.70
2010,05,31,16,23,377.60
2010,05,31,16,24,331.20
2010,05,31,16,25,315.90
2010,05,31,16,26,311.30
2010,05,31,16,27,306.70
2010,05,31,16,28,317.40
2010,05,31,16,29,324.90
2010,05,31,16,30,321.20
2010,05,31,16,31,328.50
2010,05,31,16,32,340.60
2010,05,31,16,33,369.50
2010,05,31,16,34,385.60
2010,05,31,16,35,387.00
2010,05,31,16,36,381.20
2010,05,31,16,37,389.80
2010,05,31,16,38,438.00
2010,05,31,16,39,499.00
2010,05,31,16,40,515.00
2010,05,31,16,41,515.00
2010,05,31,16,42,806.80
2010,05,31,16,43,904.00
2010,05,31,16,44,985.70
2010,05,31,16,45,990.00
2010,05,31,16,46,990.00
2010,05,31,16,47,990.00
2010,05,31,16,48,990.00
2010,05,31,16,49,990.00
2010,05,31,16,50,1088.50
2010,05,31,16,51,1117.20
2010,05,31,16,52,1113.00
2010,05,31,16,53,1113.00
2010,05,31,16,54,1109.30
2010,05,31,16,55,1099.00
2010,05,31,16,56,1099.00
2010,05,31,16,57,1013.50
2010,05,31,16,58,972.80
2010,05,31,16,59,980.70
2010,05,31,17,00,937.60
2010,05,31,17,01,911.70
2010,05,31,17,02,907.00
2010,05,31,17,03,907.00
2010,05,31,17,04,707.80
2010,05,31,17,05,366.00
2010,05,31,17,06,394.00
2010,05,31,17,07,394.00
2010,05,31,17,08,394.00
2010,05,31,17,09,394.00
2010,05,31,17,10,445.30
2010,05,31,17,11,907.00
2010,05,31,17,12,907.00
2010,05,31,17,13,691.60